| time (UTC) | temp F | wind direction | speed MPH | gust MPH | rain 1hr in | rain 24hr in | rain mn in | humidity % | barometer mb |
| 20260902191130 | 74 | 262 | 8.0 | 9.0 | 0.00 | 0.00 | 0.00 | 64 | 1015.1 |
| 20260902190624 | 73 | 230 | 3.0 | 10.0 | 0.00 | 0.00 | 0.00 | 66 | 1015.1 |
| 20260902190118 | 74 | 239 | 9.0 | 10.0 | 0.00 | 0.00 | 0.00 | 65 | 1015.1 |
| 20260902185610 | 74 | 265 | 4.0 | 10.0 | 0.00 | 0.00 | 0.00 | 64 | 1015.1 |
| 20260902185104 | 74 | 232 | 3.0 | 10.0 | 0.00 | 0.00 | 0.00 | 65 | 1015.1 |
| 20260902184558 | 74 | 185 | 6.0 | 10.0 | 0.00 | 0.00 | 0.00 | 66 | 1015.5 |
| 20260902184051 | 74 | 188 | 8.0 | 10.0 | 0.00 | 0.00 | 0.00 | 67 | 1015.5 |
| 20260902183544 | 74 | 282 | 5.0 | 10.0 | 0.00 | 0.00 | 0.00 | 67 | 1015.5 |
| 20260902183040 | 73 | 235 | 7.0 | 10.0 | 0.00 | 0.00 | 0.00 | 67 | 1015.5 |
| 20260902182531 | 73 | 262 | 3.0 | 10.0 | 0.00 | 0.00 | 0.00 | 67 | 1015.5 |
| 20260902182024 | 74 | 245 | 6.0 | 9.0 | 0.00 | 0.00 | 0.00 | 67 | 1015.5 |
| 20260902181518 | 73 | 206 | 4.0 | 8.0 | 0.00 | 0.00 | 0.00 | 67 | 1015.5 |
| 20260902180504 | 73 | 220 | 5.0 | 9.0 | 0.00 | 0.00 | 0.00 | 66 | 1015.5 |
| 20260902175958 | 73 | 271 | 3.0 | 7.0 | 0.00 | 0.00 | 0.00 | 67 | 1015.1 |
| 20260902175452 | 73 | 229 | 4.0 | 8.0 | 0.00 | 0.00 | 0.00 | 68 | 1015.1 |
| 20260902174946 | 73 | 242 | 5.0 | 8.0 | 0.00 | 0.00 | 0.00 | 67 | 1015.1 |
| 20260902174439 | 73 | 195 | 5.0 | 8.0 | 0.00 | 0.00 | 0.00 | 68 | 1015.1 |
| 20260902173932 | 73 | 203 | 2.0 | 7.0 | 0.00 | 0.00 | 0.00 | 68 | 1015.5 |
| 20260902173426 | 73 | 235 | 3.0 | 7.0 | 0.00 | 0.00 | 0.00 | 68 | 1015.1 |
| 20260902172919 | 74 | 211 | 6.0 | 7.0 | 0.00 | 0.00 | 0.00 | 67 | 1015.5 |
| 20260902171907 | 74 | 20 | 1.0 | 4.0 | 0.00 | 0.00 | 0.00 | 63 | 1015.5 |
| 20260902171400 | 75 | 245 | 1.0 | 6.0 | 0.00 | 0.00 | 0.00 | 62 | 1015.1 |
| 20260902170853 | 74 | 43 | 1.0 | 6.0 | 0.00 | 0.00 | 0.00 | 64 | 1015.1 |
| 20260902165841 | 72 | 173 | 0.0 | 7.0 | 0.00 | 0.00 | 0.00 | 68 | 1015.1 |
| 20260902164827 | 72 | 256 | 2.0 | 8.0 | 0.00 | 0.00 | 0.00 | 68 | 1015.1 |
| 20260902163814 | 72 | 169 | 3.0 | 7.0 | 0.00 | 0.00 | 0.00 | 68 | 1014.8 |
| 20260902163308 | 72 | 257 | 1.0 | 7.0 | 0.00 | 0.00 | 0.00 | 68 | 1015.1 |
| 20260902162801 | 72 | 182 | 4.0 | 6.0 | 0.00 | 0.00 | 0.00 | 68 | 1015.1 |
| 20260902162254 | 73 | 236 | 2.0 | 4.0 | 0.00 | 0.00 | 0.00 | 67 | 1015.1 |
| 20260902161748 | 72 | 291 | 0.0 | 3.0 | 0.00 | 0.00 | 0.00 | 69 | 1015.1 |
| 20260902161242 | 71 | 226 | 2.0 | 6.0 | 0.00 | 0.00 | 0.00 | 71 | 1015.1 |
| 20260902160735 | 70 | 156 | 2.0 | 6.0 | 0.00 | 0.00 | 0.00 | 72 | 1015.1 |
| 20260902160229 | 70 | 197 | 4.0 | 6.0 | 0.00 | 0.00 | 0.00 | 72 | 1015.1 |
| 20260902155722 | 70 | 154 | 1.0 | 4.0 | 0.00 | 0.00 | 0.00 | 71 | 1015.1 |
| 20260902155216 | 70 | 173 | 2.0 | 3.0 | 0.00 | 0.00 | 0.00 | 71 | 1015.1 |
| 20260902154709 | 71 | 231 | 2.0 | 6.0 | 0.00 | 0.00 | 0.00 | 72 | 1015.1 |
| 20260902154203 | 71 | 187 | 2.0 | 6.0 | 0.00 | 0.00 | 0.00 | 73 | 1015.1 |
| 20260902153657 | 70 | 291 | 0.0 | 3.0 | 0.00 | 0.00 | 0.00 | 74 | 1014.8 |
| 20260902153151 | 70 | 266 | 1.0 | 3.0 | 0.00 | 0.00 | 0.00 | 74 | 1014.8 |
| 20260902152643 | 70 | 234 | 1.0 | 3.0 | 0.00 | 0.00 | 0.00 | 75 | 1015.1 |
| 20260902152139 | 69 | 302 | 1.0 | 2.0 | 0.00 | 0.00 | 0.00 | 76 | 1014.8 |
| 20260902151630 | 68 | 273 | 0.0 | 2.0 | 0.00 | 0.00 | 0.00 | 77 | 1014.8 |
| 20260902150617 | 68 | 276 | 1.0 | 1.0 | 0.00 | 0.00 | 0.00 | 78 | 1015.1 |
| 20260902150111 | 68 | 341 | 0.0 | 1.0 | 0.00 | 0.00 | 0.00 | 79 | 1014.8 |
| 20260902145604 | 66 | 340 | 0.0 | 1.0 | 0.00 | 0.00 | 0.00 | 81 | 1014.8 |
| 20260902145059 | 66 | 348 | 1.0 | 2.0 | 0.00 | 0.00 | 0.00 | 83 | 1015.1 |
| 20260902144045 | 64 | 334 | 1.0 | 2.0 | 0.00 | 0.00 | 0.00 | 85 | 1014.8 |
| 20260902143539 | 64 | 328 | 0.0 | 2.0 | 0.00 | 0.00 | 0.00 | 86 | 1014.8 |
| 20260902143031 | 64 | 342 | 1.0 | 3.0 | 0.00 | 0.00 | 0.00 | 86 | 1014.8 |
| 20260902142525 | 63 | 337 | 1.0 | 3.0 | 0.00 | 0.00 | 0.00 | 87 | 1014.8 |
| 20260902142019 | 63 | 327 | 2.0 | 3.0 | 0.00 | 0.00 | 0.00 | 87 | 1014.8 |
| 20260902141513 | 62 | 321 | 1.0 | 3.0 | 0.00 | 0.00 | 0.00 | 88 | 1014.8 |
| 20260902141005 | 62 | 306 | 1.0 | 3.0 | 0.00 | 0.00 | 0.00 | 88 | 1014.8 |
| 20260902135953 | 61 | 335 | 1.0 | 2.0 | 0.00 | 0.00 | 0.00 | 88 | 1014.5 |
| 20260902135446 | 61 | 323 | 2.0 | 2.0 | 0.00 | 0.00 | 0.00 | 89 | 1014.5 |
| 20260902134940 | 61 | 323 | 1.0 | 2.0 | 0.00 | 0.00 | 0.00 | 88 | 1014.5 |
| 20260902134434 | 61 | 318 | 0.0 | 2.0 | 0.00 | 0.00 | 0.00 | 88 | 1014.5 |
| 20260902133926 | 61 | 329 | 2.0 | 2.0 | 0.00 | 0.00 | 0.00 | 88 | 1014.5 |
| 20260902133420 | 61 | 319 | 1.0 | 3.0 | 0.00 | 0.00 | 0.00 | 88 | 1014.5 |
| 20260902132914 | 61 | 324 | 1.0 | 3.0 | 0.00 | 0.00 | 0.00 | 88 | 1014.5 |
| 20260902132407 | 61 | 333 | 1.0 | 2.0 | 0.00 | 0.00 | 0.00 | 88 | 1014.5 |
| 20260902131901 | 62 | 333 | 1.0 | 2.0 | 0.00 | 0.00 | 0.00 | 87 | 1014.1 |
| 20260902131354 | 62 | 332 | 1.0 | 2.0 | 0.00 | 0.00 | 0.00 | 88 | 1014.1 |
| 20260902130847 | 62 | 325 | 1.0 | 2.0 | 0.00 | 0.00 | 0.00 | 87 | 1014.1 |
| 20260902130340 | 62 | 338 | 2.0 | 2.0 | 0.00 | 0.00 | 0.00 | 87 | 1014.5 |
| 20260902125834 | 62 | 327 | 1.0 | 2.0 | 0.00 | 0.00 | 0.00 | 87 | 1014.5 |
| 20260902125328 | 62 | 322 | 1.0 | 2.0 | 0.00 | 0.00 | 0.00 | 87 | 1014.1 |
| 20260902124822 | 62 | 323 | 1.0 | 2.0 | 0.00 | 0.00 | 0.00 | 87 | 1014.5 |
| 20260902124315 | 62 | 328 | 1.0 | 3.0 | 0.00 | 0.00 | 0.00 | 87 | 1014.1 |
| 20260902123808 | 62 | 338 | 2.0 | 2.0 | 0.00 | 0.00 | 0.00 | 87 | 1014.5 |
| 20260902123302 | 62 | 325 | 0.0 | 2.0 | 0.00 | 0.00 | 0.00 | 87 | 1014.1 |
| 20260902122756 | 62 | 328 | 0.0 | 2.0 | 0.00 | 0.00 | 0.00 | 87 | 1014.5 |
| 20260902121236 | 62 | 328 | 1.0 | 2.0 | 0.00 | 0.00 | 0.00 | 87 | 1014.5 |
| 20260902120730 | 62 | 324 | 2.0 | 2.0 | 0.00 | 0.00 | 0.00 | 87 | 1014.5 |
| 20260902120224 | 61 | 326 | 1.0 | 2.0 | 0.00 | 0.00 | 0.00 | 87 | 1014.5 |
| 20260902115717 | 62 | 316 | 0.0 | 2.0 | 0.00 | 0.00 | 0.00 | 86 | 1014.5 |
| 20260902115210 | 62 | 318 | 0.0 | 2.0 | 0.00 | 0.00 | 0.00 | 87 | 1014.5 |
| 20260902114703 | 62 | 325 | 1.0 | 2.0 | 0.00 | 0.00 | 0.00 | 87 | 1014.5 |
| 20260902114157 | 62 | 327 | 0.0 | 2.0 | 0.00 | 0.00 | 0.00 | 86 | 1014.5 |
| 20260902113145 | 62 | 321 | 0.0 | 2.0 | 0.00 | 0.00 | 0.00 | 86 | 1014.5 |
| 20260902112132 | 62 | 337 | 0.0 | 2.0 | 0.00 | 0.00 | 0.00 | 86 | 1014.5 |
| 20260902111624 | 63 | 335 | 1.0 | 2.0 | 0.00 | 0.00 | 0.00 | 86 | 1014.5 |
| 20260902111118 | 62 | 342 | 1.0 | 2.0 | 0.00 | 0.00 | 0.00 | 86 | 1014.5 |
| 20260902110612 | 63 | 0 | 1.0 | 2.0 | 0.00 | 0.00 | 0.00 | 85 | 1014.5 |
| 20260902110106 | 63 | 328 | 0.0 | 2.0 | 0.00 | 0.00 | 0.00 | 85 | 1014.5 |
| 20260902105559 | 63 | 340 | 1.0 | 2.0 | 0.00 | 0.00 | 0.00 | 85 | 1014.5 |
| 20260902105053 | 63 | 332 | 0.0 | 2.0 | 0.00 | 0.00 | 0.00 | 85 | 1014.5 |
| 20260902104546 | 63 | 341 | 1.0 | 2.0 | 0.00 | 0.00 | 0.00 | 85 | 1014.5 |
| 20260902104039 | 63 | 330 | 0.0 | 3.0 | 0.00 | 0.00 | 0.00 | 84 | 1014.5 |
| 20260902103532 | 64 | 340 | 2.0 | 3.0 | 0.00 | 0.00 | 0.00 | 84 | 1014.5 |
| 20260902103026 | 64 | 343 | 2.0 | 3.0 | 0.00 | 0.00 | 0.00 | 84 | 1014.5 |
| 20260902102520 | 64 | 1 | 1.0 | 3.0 | 0.00 | 0.00 | 0.00 | 84 | 1014.5 |
| 20260902102013 | 64 | 343 | 2.0 | 3.0 | 0.00 | 0.00 | 0.00 | 84 | 1014.5 |
| 20260902101507 | 64 | 25 | 2.0 | 3.0 | 0.00 | 0.00 | 0.00 | 84 | 1014.5 |
| 20260902094935 | 64 | 349 | 2.0 | 2.0 | 0.00 | 0.00 | 0.00 | 83 | 1014.5 |
| 20260902094428 | 64 | 12 | 2.0 | 3.0 | 0.00 | 0.00 | 0.00 | 83 | 1014.5 |
| 20260902093921 | 64 | 26 | 2.0 | 4.0 | 0.00 | 0.00 | 0.00 | 83 | 1014.5 |
| 20260902093415 | 64 | 19 | 2.0 | 4.0 | 0.00 | 0.00 | 0.00 | 83 | 1014.5 |
| 20260902092908 | 64 | 27 | 2.0 | 4.0 | 0.00 | 0.00 | 0.00 | 83 | 1014.5 |
| 20260902092402 | 64 | 9 | 3.0 | 4.0 | 0.00 | 0.00 | 0.00 | 83 | 1014.5 |
| 20260902091856 | 64 | 16 | 2.0 | 3.0 | 0.00 | 0.00 | 0.00 | 83 | 1014.5 |
| 20260902091349 | 64 | 8 | 2.0 | 3.0 | 0.00 | 0.00 | 0.00 | 82 | 1014.5 |
| 20260902090843 | 64 | 4 | 2.0 | 4.0 | 0.00 | 0.00 | 0.00 | 82 | 1014.5 |
| 20260902090337 | 64 | 1 | 3.0 | 4.0 | 0.00 | 0.00 | 0.00 | 82 | 1014.5 |
| 20260902085830 | 64 | 5 | 2.0 | 3.0 | 0.00 | 0.00 | 0.00 | 82 | 1014.5 |
| 20260902085324 | 64 | 25 | 2.0 | 4.0 | 0.00 | 0.00 | 0.00 | 82 | 1014.5 |
| 20260902084817 | 64 | 8 | 2.0 | 4.0 | 0.00 | 0.00 | 0.00 | 82 | 1014.1 |
| 20260902084310 | 64 | 347 | 3.0 | 3.0 | 0.00 | 0.00 | 0.00 | 81 | 1014.5 |
| 20260902083804 | 64 | 36 | 1.0 | 4.0 | 0.00 | 0.00 | 0.00 | 81 | 1014.5 |
| 20260902083300 | 64 | 15 | 2.0 | 4.0 | 0.00 | 0.00 | 0.00 | 81 | 1014.5 |
| 20260902081738 | 64 | 3 | 2.0 | 4.0 | 0.00 | 0.00 | 0.00 | 80 | 1014.5 |
| 20260902081231 | 64 | 11 | 3.0 | 6.0 | 0.00 | 0.00 | 0.00 | 80 | 1014.5 |
| 20260902080725 | 64 | 18 | 4.0 | 6.0 | 0.00 | 0.00 | 0.00 | 80 | 1014.5 |
| 20260902075712 | 64 | 9 | 4.0 | 6.0 | 0.00 | 0.00 | 0.00 | 79 | 1014.5 |
| 20260902075206 | 64 | 18 | 4.0 | 6.0 | 0.00 | 0.00 | 0.00 | 79 | 1014.5 |
| 20260902074659 | 64 | 9 | 4.0 | 4.0 | 0.00 | 0.00 | 0.00 | 78 | 1014.5 |
| 20260902074153 | 64 | 5 | 2.0 | 4.0 | 0.00 | 0.00 | 0.00 | 77 | 1014.5 |
| 20260902073646 | 64 | 7 | 3.0 | 4.0 | 0.00 | 0.00 | 0.00 | 77 | 1014.5 |
| 20260902073140 | 64 | 11 | 2.0 | 4.0 | 0.00 | 0.00 | 0.00 | 77 | 1014.5 |
| 20260902072634 | 64 | 9 | 3.0 | 4.0 | 0.00 | 0.00 | 0.00 | 77 | 1014.5 |
| 20260902072127 | 64 | 22 | 2.0 | 4.0 | 0.00 | 0.00 | 0.00 | 77 | 1014.1 |
| 20260902071621 | 65 | 17 | 4.0 | 4.0 | 0.00 | 0.00 | 0.00 | 77 | 1014.1 |
| 20260902071113 | 65 | 12 | 3.0 | 4.0 | 0.00 | 0.00 | 0.00 | 77 | 1014.1 |
| 20260902070607 | 65 | 0 | 2.0 | 4.0 | 0.00 | 0.00 | 0.00 | 76 | 1014.1 |
| 20260902065555 | 65 | 14 | 3.0 | 6.0 | 0.00 | 0.00 | 0.00 | 76 | 1014.1 |
| 20260902064542 | 65 | 10 | 3.0 | 4.0 | 0.00 | 0.00 | 0.00 | 74 | 1013.8 |
| 20260902064035 | 65 | 355 | 2.0 | 3.0 | 0.00 | 0.00 | 0.00 | 74 | 1013.8 |
| 20260902063528 | 65 | 28 | 2.0 | 4.0 | 0.00 | 0.00 | 0.00 | 74 | 1014.1 |
| 20260902063022 | 65 | 14 | 2.0 | 4.0 | 0.00 | 0.00 | 0.00 | 73 | 1014.1 |
| 20260902062516 | 65 | 19 | 3.0 | 4.0 | 0.00 | 0.00 | 0.00 | 73 | 1014.1 |
| 20260902062009 | 65 | 19 | 3.0 | 3.0 | 0.00 | 0.00 | 0.00 | 73 | 1014.1 |
| 20260902061503 | 65 | 352 | 1.0 | 4.0 | 0.00 | 0.00 | 0.00 | 73 | 1014.1 |
| 20260902060450 | 64 | 0 | 1.0 | 3.0 | 0.00 | 0.00 | 0.00 | 73 | 1014.1 |
| 20260902055437 | 64 | 342 | 1.0 | 2.0 | 0.00 | 0.00 | 0.00 | 73 | 1013.8 |
| 20260902054930 | 65 | 337 | 1.0 | 2.0 | 0.00 | 0.00 | 0.00 | 74 | 1013.8 |
| 20260902054424 | 65 | 327 | 1.0 | 2.0 | 0.00 | 0.00 | 0.00 | 74 | 1013.8 |
| 20260902053917 | 65 | 334 | 1.0 | 2.0 | 0.00 | 0.00 | 0.00 | 74 | 1013.8 |
| 20260902053411 | 65 | 344 | 1.0 | 2.0 | 0.00 | 0.00 | 0.00 | 74 | 1013.8 |
| 20260902052359 | 65 | 333 | 1.0 | 3.0 | 0.00 | 0.00 | 0.00 | 74 | 1013.8 |
| 20260902051851 | 65 | 330 | 1.0 | 4.0 | 0.00 | 0.00 | 0.00 | 74 | 1013.8 |
| 20260902051345 | 65 | 16 | 3.0 | 4.0 | 0.00 | 0.00 | 0.00 | 74 | 1013.8 |
| 20260902050333 | 66 | 357 | 1.0 | 3.0 | 0.00 | 0.00 | 0.00 | 77 | 1013.8 |
| 20260902044306 | 66 | 335 | 1.0 | 2.0 | 0.00 | 0.00 | 0.00 | 76 | 1013.8 |
| 20260902043252 | 65 | 340 | 0.0 | 2.0 | 0.00 | 0.00 | 0.00 | 76 | 1013.4 |
| 20260902042746 | 66 | 328 | 1.0 | 1.0 | 0.00 | 0.00 | 0.00 | 76 | 1013.4 |
| 20260902042240 | 66 | 321 | 0.0 | 2.0 | 0.00 | 0.00 | 0.00 | 77 | 1013.4 |
| 20260902041734 | 66 | 329 | 0.0 | 2.0 | 0.00 | 0.00 | 0.00 | 77 | 1013.4 |
| 20260902041227 | 66 | 318 | 1.0 | 2.0 | 0.00 | 0.00 | 0.00 | 77 | 1013.4 |
| 20260902040721 | 67 | 307 | 0.0 | 3.0 | 0.00 | 0.00 | 0.00 | 77 | 1013.4 |
| 20260902040214 | 67 | 320 | 2.0 | 3.0 | 0.00 | 0.00 | 0.00 | 76 | 1013.4 |
| 20260902035202 | 67 | 322 | 0.0 | 2.0 | 0.00 | 0.00 | 0.00 | 76 | 1013.1 |
| 20260902034655 | 67 | 308 | 1.0 | 1.0 | 0.00 | 0.00 | 0.00 | 76 | 1013.1 |
| 20260902034148 | 67 | 292 | 0.0 | 1.0 | 0.00 | 0.00 | 0.00 | 76 | 1012.8 |
| 20260902033642 | 67 | 288 | 0.0 | 1.0 | 0.00 | 0.00 | 0.00 | 75 | 1012.8 |
| 20260902033136 | 68 | 259 | 0.0 | 2.0 | 0.00 | 0.00 | 0.00 | 75 | 1012.8 |
| 20260902032629 | 68 | 259 | 0.0 | 2.0 | 0.00 | 0.00 | 0.00 | 75 | 1012.8 |
| 20260902032122 | 68 | 250 | 1.0 | 3.0 | 0.00 | 0.00 | 0.00 | 75 | 1012.8 |
| 20260902031616 | 68 | 257 | 1.0 | 3.0 | 0.00 | 0.00 | 0.00 | 74 | 1012.8 |
| 20260902031109 | 68 | 274 | 0.0 | 3.0 | 0.00 | 0.00 | 0.00 | 74 | 1012.8 |
| 20260902030056 | 68 | 242 | 4.0 | 4.0 | 0.00 | 0.00 | 0.00 | 74 | 1012.8 |
| 20260902025550 | 68 | 245 | 2.0 | 4.0 | 0.00 | 0.00 | 0.00 | 73 | 1012.4 |
| 20260902025044 | 69 | 245 | 2.0 | 4.0 | 0.00 | 0.00 | 0.00 | 73 | 1012.8 |
| 20260902024031 | 69 | 252 | 4.0 | 6.0 | 0.00 | 0.00 | 0.00 | 72 | 1012.8 |
| 20260902023524 | 69 | 226 | 3.0 | 4.0 | 0.00 | 0.00 | 0.00 | 72 | 1012.4 |
| 20260902023018 | 69 | 281 | 2.0 | 7.0 | 0.00 | 0.00 | 0.00 | 72 | 1012.4 |
| 20260902022511 | 69 | 257 | 3.0 | 7.0 | 0.00 | 0.00 | 0.00 | 72 | 1012.4 |
| 20260902022005 | 69 | 245 | 3.0 | 6.0 | 0.00 | 0.00 | 0.00 | 71 | 1012.4 |
| 20260902021458 | 69 | 277 | 3.0 | 4.0 | 0.00 | 0.00 | 0.00 | 71 | 1012.4 |
| 20260902020951 | 70 | 266 | 2.0 | 8.0 | 0.00 | 0.00 | 0.00 | 71 | 1012.4 |
| 20260902020445 | 70 | 244 | 5.0 | 8.0 | 0.00 | 0.00 | 0.00 | 71 | 1012.4 |
| 20260902015938 | 70 | 230 | 4.0 | 6.0 | 0.00 | 0.00 | 0.00 | 71 | 1012.4 |
| 20260902015432 | 70 | 239 | 4.0 | 7.0 | 0.00 | 0.00 | 0.00 | 70 | 1012.4 |
| 20260902014926 | 70 | 200 | 3.0 | 7.0 | 0.00 | 0.00 | 0.00 | 71 | 1012.4 |
| 20260902014419 | 71 | 241 | 4.0 | 7.0 | 0.00 | 0.00 | 0.00 | 70 | 1012.4 |
| 20260902013913 | 71 | 245 | 3.0 | 9.0 | 0.00 | 0.00 | 0.00 | 70 | 1012.8 |
| 20260902012900 | 71 | 270 | 2.0 | 10.0 | 0.00 | 0.00 | 0.00 | 71 | 1012.4 |
| 20260902012355 | 71 | 199 | 5.0 | 10.0 | 0.00 | 0.00 | 0.00 | 71 | 1012.8 |
| 20260902011341 | 72 | 255 | 6.0 | 8.0 | 0.00 | 0.00 | 0.00 | 71 | 1012.4 |
| 20260902010833 | 72 | 216 | 5.0 | 8.0 | 0.00 | 0.00 | 0.00 | 70 | 1012.4 |
| 20260902010327 | 71 | 258 | 4.0 | 9.0 | 0.00 | 0.00 | 0.00 | 71 | 1012.8 |
| 20260902005821 | 72 | 258 | 6.0 | 9.0 | 0.00 | 0.00 | 0.00 | 71 | 1012.8 |
| 20260902005314 | 72 | 208 | 6.0 | 9.0 | 0.00 | 0.00 | 0.00 | 70 | 1012.8 |
| 20260902003755 | 73 | 243 | 7.0 | 11.0 | 0.00 | 0.00 | 0.00 | 69 | 1012.8 |
| 20260902002741 | 72 | 224 | 4.0 | 13.0 | 0.00 | 0.00 | 0.00 | 71 | 1012.8 |
| 20260902002235 | 72 | 231 | 7.0 | 13.0 | 0.00 | 0.00 | 0.00 | 69 | 1012.8 |
| 20260902001729 | 73 | 234 | 7.0 | 13.0 | 0.00 | 0.00 | 0.00 | 70 | 1012.8 |
| 20260902001222 | 73 | 248 | 6.0 | 10.0 | 0.00 | 0.00 | 0.00 | 69 | 1012.8 |
| 20260901235702 | 72 | 247 | 6.0 | 14.0 | 0.00 | 0.00 | 0.00 | 71 | 1012.8 |
| 20260901235156 | 72 | 226 | 11.0 | 14.0 | 0.00 | 0.00 | 0.00 | 71 | 1013.1 |
| 20260901234649 | 73 | 267 | 6.0 | 13.0 | 0.00 | 0.00 | 0.00 | 71 | 1013.1 |
| 20260901234142 | 72 | 274 | 4.0 | 13.0 | 0.00 | 0.00 | 0.00 | 71 | 1013.1 |
| 20260901233636 | 72 | 227 | 5.0 | 13.0 | 0.00 | 0.00 | 0.00 | 71 | 1013.1 |
| 20260901233130 | 73 | 226 | 10.0 | 13.0 | 0.00 | 0.00 | 0.00 | 68 | 1013.1 |
| 20260901231610 | 73 | 230 | 12.0 | 14.0 | 0.00 | 0.00 | 0.00 | 69 | 1013.1 |
| 20260901231103 | 72 | 276 | 2.0 | 14.0 | 0.00 | 0.00 | 0.00 | 72 | 1013.1 |
| 20260901230558 | 73 | 204 | 6.0 | 16.0 | 0.00 | 0.00 | 0.00 | 71 | 1013.1 |
| 20260901230050 | 73 | 268 | 8.0 | 16.0 | 0.00 | 0.00 | 0.00 | 71 | 1013.4 |
| 20260901225038 | 73 | 260 | 6.0 | 14.0 | 0.00 | 0.00 | 0.00 | 71 | 1013.4 |
| 20260901224530 | 73 | 257 | 11.0 | 14.0 | 0.00 | 0.00 | 0.00 | 70 | 1013.4 |
| 20260901224024 | 73 | 235 | 8.0 | 16.0 | 0.00 | 0.00 | 0.00 | 71 | 1013.4 |
| 20260901223518 | 73 | 210 | 9.0 | 16.0 | 0.00 | 0.00 | 0.00 | 72 | 1013.4 |
| 20260901223011 | 73 | 225 | 10.0 | 14.0 | 0.00 | 0.00 | 0.00 | 71 | 1013.4 |
| 20260901222504 | 73 | 230 | 7.0 | 15.0 | 0.00 | 0.00 | 0.00 | 70 | 1013.4 |
| 20260901221958 | 74 | 251 | 8.0 | 16.0 | 0.00 | 0.00 | 0.00 | 70 | 1013.4 |
| 20260901221452 | 74 | 237 | 8.0 | 16.0 | 0.00 | 0.00 | 0.00 | 69 | 1013.4 |
| 20260901220945 | 74 | 226 | 11.0 | 16.0 | 0.00 | 0.00 | 0.00 | 69 | 1013.4 |
| 20260901215931 | 75 | 217 | 11.0 | 14.0 | 0.00 | 0.00 | 0.00 | 68 | 1013.4 |
| 20260901215425 | 74 | 222 | 11.0 | 14.0 | 0.00 | 0.00 | 0.00 | 68 | 1013.8 |
| 20260901214919 | 75 | 274 | 6.0 | 14.0 | 0.00 | 0.00 | 0.00 | 65 | 1013.4 |
| 20260901214412 | 74 | 257 | 9.0 | 14.0 | 0.00 | 0.00 | 0.00 | 67 | 1013.8 |
| 20260901213906 | 75 | 255 | 10.0 | 11.0 | 0.00 | 0.00 | 0.00 | 65 | 1013.8 |
| 20260901212346 | 74 | 265 | 5.0 | 14.0 | 0.00 | 0.00 | 0.00 | 68 | 1013.8 |
| 20260901211840 | 75 | 226 | 11.0 | 14.0 | 0.00 | 0.00 | 0.00 | 65 | 1013.8 |
| 20260901211334 | 75 | 308 | 5.0 | 14.0 | 0.00 | 0.00 | 0.00 | 67 | 1013.8 |
| 20260901210826 | 74 | 244 | 6.0 | 14.0 | 0.00 | 0.00 | 0.00 | 68 | 1013.8 |
| 20260901210320 | 75 | 268 | 8.0 | 13.0 | 0.00 | 0.00 | 0.00 | 66 | 1013.8 |
| 20260901205814 | 75 | 244 | 7.0 | 14.0 | 0.00 | 0.00 | 0.00 | 65 | 1013.8 |
| 20260901204801 | 75 | 284 | 6.0 | 11.0 | 0.00 | 0.00 | 0.00 | 66 | 1014.1 |
| 20260901204254 | 75 | 238 | 7.0 | 11.0 | 0.00 | 0.00 | 0.00 | 65 | 1014.1 |
| 20260901203241 | 74 | 271 | 6.0 | 13.0 | 0.00 | 0.00 | 0.00 | 68 | 1014.1 |
| 20260901202734 | 74 | 241 | 6.0 | 13.0 | 0.00 | 0.00 | 0.00 | 67 | 1014.1 |
| 20260901202228 | 75 | 266 | 5.0 | 10.0 | 0.00 | 0.00 | 0.00 | 67 | 1014.5 |
| 20260901201722 | 74 | 210 | 7.0 | 14.0 | 0.00 | 0.00 | 0.00 | 68 | 1014.5 |
| 20260901200708 | 74 | 256 | 5.0 | 10.0 | 0.00 | 0.00 | 0.00 | 69 | 1014.5 |
| 20260901200202 | 73 | 181 | 6.0 | 11.0 | 0.00 | 0.00 | 0.00 | 70 | 1014.5 |
| 20260901195655 | 74 | 236 | 6.0 | 11.0 | 0.00 | 0.00 | 0.00 | 69 | 1014.5 |
| 20260901195149 | 74 | 178 | 6.0 | 14.0 | 0.00 | 0.00 | 0.00 | 69 | 1014.5 |
| 20260901194136 | 74 | 259 | 9.0 | 10.0 | 0.00 | 0.00 | 0.00 | 68 | 1014.5 |
| 20260901193629 | 74 | 320 | 6.0 | 10.0 | 0.00 | 0.00 | 0.00 | 68 | 1014.8 |
| 20260901193123 | 74 | 248 | 5.0 | 11.0 | 0.00 | 0.00 | 0.00 | 68 | 1014.8 |
| 20260901192616 | 74 | 279 | 8.0 | 11.0 | 0.00 | 0.00 | 0.00 | 69 | 1014.8 |
| 20260901192110 | 73 | 211 | 4.0 | 11.0 | 0.00 | 0.00 | 0.00 | 70 | 1014.8 |